Lady Lake, FL

9:31 AM EDT on September 25, 2016 (GMT -0400)
The Villages

Weather History for KVVG - January, 2013

Change the Weather History Date:

Thursday, January 3, 2013

  Actual Average (KLEE) Record (KLEE)
Temperature  
Mean Temperature 60 °F -  
Max Temperature 66 °F 70 °F 83 °F (1967)
Min Temperature 55 °F 49 °F 25 °F (1979)
Degree Days  
Heating Degree Days 4    
Growing Degree Days 10 (Base 50)    
Moisture  
Dew Point 60 °F    
Average Humidity 96    
Maximum Humidity 100    
Minimum Humidity 88    
Precipitation  
Precipitation 0.06 in - - ()
Sea Level Pressure  
Sea Level Pressure 30.12 in    
Wind  
Wind Speed 3 mph (NNE)    
Max Wind Speed 12 mph    
Max Gust Speed 18 mph    
Visibility 3 miles    
Events Fog , Rain    
Averages and records for this station are not official NWS values.
T = Trace of Precipitation, MM = Missing Value Source: NWS Daily Summary

Daily Weather History Graph

Daily Weather History Graph

Search for Another Location

Airport or City:

Trip Planner

Search our weather history database for the weather conditions in past years. The results will help you decide how hot, cold, wet, or windy it might be!

Date:

Astronomy

Jan. 03, 2013 Rise Set
Actual Time 7:21 AM EST 5:43 PM EST
Civil Twilight 6:56 AM EST 6:09 PM EST
Nautical Twilight 6:26 AM EST 6:38 PM EST
Astronomical Twilight 5:57 AM EST 7:07 PM EST
Moon 11:43 PM EST (1/3) 11:03 AM EST (1/3)
Length of Visible Light 11h 13m
Length of Day
10h 21m
Waning Gibbous, 65% of the Moon is Illuminated
Jan 3
Waning Gibbous
Jan 4
Last Quarter
Jan 11
New
Jan 18
First Quarter
Jan 26
Full

Hourly Weather History & Observations

Time (EST) Temp. Dew Point Humidity Pressure Visibility Wind Dir Wind Speed Gust Speed Precip Events Conditions
12:15 AM 64.4 °F 64.4 °F 100% 30.07 in 1.5 mi Calm Calm - N/A   Mist
12:35 AM 64.4 °F 64.4 °F 100% 30.06 in 0.5 mi Calm Calm - N/A Fog Fog
12:55 AM 64.4 °F 64.4 °F 100% 30.06 in 0.2 mi Calm Calm - N/A Fog Fog
1:15 AM 64.4 °F 64.4 °F 100% 30.06 in 0.2 mi Calm Calm - N/A Fog Fog
1:35 AM 64.4 °F 64.4 °F 100% 30.06 in 0.5 mi Calm Calm - N/A Fog Fog
1:55 AM 64.4 °F 64.4 °F 100% 30.06 in 1.0 mi Calm Calm - N/A   Mist
2:35 AM 64.4 °F 64.4 °F 100% 30.06 in 2.0 mi Calm Calm - N/A   Mist
2:55 AM 64.4 °F 64.4 °F 100% 30.06 in 3.0 mi Calm Calm - N/A   Mist
3:15 AM 64.4 °F 64.4 °F 100% 30.06 in 3.0 mi Calm Calm - N/A   Mist
3:35 AM 64.4 °F 64.4 °F 100% 30.06 in 2.0 mi Calm Calm - N/A   Mist
3:55 AM 64.4 °F 64.4 °F 100% 30.06 in 3.0 mi Calm Calm - N/A   Mist
4:15 AM 64.4 °F 64.4 °F 100% 30.06 in 1.8 mi Calm Calm - N/A   Mist
4:35 AM 64.4 °F 64.4 °F 100% 30.06 in 2.5 mi Calm Calm - N/A   Mist
4:55 AM 64.4 °F 64.4 °F 100% 30.06 in 2.5 mi Calm Calm - N/A   Mist
5:35 AM 64.4 °F 64.4 °F 100% 30.06 in 1.0 mi ENE 4.6 mph - N/A   Mist
5:55 AM 64.4 °F 64.4 °F 100% 30.06 in 2.5 mi Calm Calm - N/A   Mist
6:15 AM 64.4 °F 64.4 °F 100% 30.07 in 3.0 mi Calm Calm - N/A   Mist
6:35 AM 64.4 °F 64.4 °F 100% 30.08 in 2.5 mi Calm Calm - N/A   Mist
6:55 AM 64.4 °F 62.6 °F 94% 30.08 in 2.0 mi Calm Calm - N/A   Mist
7:15 AM 64.4 °F 62.6 °F 94% 30.09 in 3.0 mi Calm Calm - N/A   Mist
7:35 AM 64.4 °F 62.6 °F 94% 30.10 in 3.0 mi Calm Calm - N/A   Mist
7:55 AM 64.4 °F 62.6 °F 94% 30.11 in 3.0 mi Calm Calm - N/A   Mist
8:15 AM 64.4 °F 62.6 °F 94% 30.11 in 1.5 mi ENE 4.6 mph - N/A   Mist
8:35 AM 64.4 °F 62.6 °F 94% 30.11 in 1.5 mi Calm Calm - N/A   Mist
8:55 AM 64.4 °F 62.6 °F 94% 30.11 in 5.0 mi East 6.9 mph - N/A   Mist
9:15 AM 64.4 °F 62.6 °F 94% 30.11 in 5.0 mi ESE 6.9 mph - N/A   Mist
9:35 AM 64.4 °F 62.6 °F 94% 30.12 in 3.0 mi ESE 6.9 mph - N/A   Mist
9:55 AM 64.4 °F 62.6 °F 94% 30.14 in 3.0 mi Calm Calm - N/A   Mist
10:15 AM 64.4 °F 62.6 °F 94% 30.14 in 3.0 mi Calm Calm - N/A   Mist
10:55 AM 66.2 °F 62.6 °F 88% 30.14 in 5.0 mi Calm Calm - N/A   Mist
11:15 AM 66.2 °F 62.6 °F 88% 30.13 in 5.0 mi Calm Calm - N/A   Mist
11:35 AM 66.2 °F 62.6 °F 88% 30.12 in 5.0 mi Calm Calm - N/A   Mist
11:55 AM 66.2 °F 62.6 °F 88% 30.11 in 5.0 mi Calm Calm - N/A   Mist
12:15 PM 66.2 °F 62.6 °F 88% 30.11 in 5.0 mi North 5.8 mph - N/A   Mist
12:35 PM 64.4 °F 62.6 °F 94% 30.10 in 6.0 mi NNE 4.6 mph - N/A   Mist
12:55 PM 64.4 °F 62.6 °F 94% 30.09 in 5.0 mi NNE 4.6 mph - N/A   Mist
1:15 PM 66.2 °F 62.6 °F 88% 30.08 in 5.0 mi NNE 5.8 mph - N/A   Mist
1:35 PM 64.4 °F 62.6 °F 94% 30.08 in 4.0 mi North 9.2 mph - N/A   Mist
1:55 PM 62.6 °F 62.6 °F 100% 30.09 in 1.2 mi North 6.9 mph - N/A   Mist
2:15 PM 62.6 °F 62.6 °F 100% 30.10 in 1.2 mi North 8.1 mph - N/A   Mist
2:35 PM 62.6 °F 60.8 °F 94% 30.10 in 1.2 mi North 8.1 mph - N/A   Mist
2:55 PM 60.8 °F 60.8 °F 100% 30.10 in 1.0 mi North 9.2 mph - N/A   Mist
3:15 PM 60.8 °F 60.8 °F 100% 30.11 in 1.0 mi North 8.1 mph - N/A   Mist
3:35 PM 60.8 °F 59.0 °F 94% 30.11 in 0.8 mi North 11.5 mph 16.1 mph N/A Rain Light Rain
3:55 PM 60.8 °F 59.0 °F 94% 30.12 in 1.2 mi North 9.2 mph - N/A   Mist
4:15 PM 59.0 °F 57.2 °F 94% 30.13 in 2.5 mi North 10.4 mph 18.4 mph N/A   Mist
4:35 PM 59.0 °F 57.2 °F 94% 30.13 in 3.0 mi NNE 9.2 mph - N/A   Mist
4:55 PM 59.0 °F 57.2 °F 94% 30.14 in 2.5 mi NNE 9.2 mph - N/A   Mist
5:15 PM 57.2 °F 55.4 °F 94% 30.14 in 4.0 mi NNE 9.2 mph 18.4 mph N/A   Mist
5:35 PM 57.2 °F 55.4 °F 94% 30.16 in 5.0 mi North 9.2 mph 17.3 mph N/A   Mist
5:55 PM 57.2 °F 53.6 °F 88% 30.15 in 4.0 mi NNE 9.2 mph 18.4 mph N/A   Mist
6:15 PM 57.2 °F 53.6 °F 88% 30.16 in 4.0 mi NNE 10.4 mph - N/A   Haze
6:55 PM 55.4 °F 53.6 °F 94% 30.18 in 3.0 mi NNE 9.2 mph - 0.01 in Rain Light Rain
7:15 PM 55.4 °F 53.6 °F 94% 30.18 in 2.5 mi NNE 6.9 mph - 0.01 in   Light Drizzle
7:35 PM 55.4 °F 53.6 °F 94% 30.19 in 2.0 mi ENE 5.8 mph - 0.02 in   Light Drizzle
7:55 PM 55.4 °F 55.4 °F 100% 30.19 in 3.0 mi North 4.6 mph - 0.02 in   Mist
8:15 PM 55.4 °F 55.4 °F 100% 30.19 in 4.0 mi North 3.5 mph - N/A   Mist
8:35 PM 55.4 °F 55.4 °F 100% 30.20 in 2.0 mi NNE 3.5 mph - N/A   Light Drizzle
8:55 PM 55.4 °F 55.4 °F 100% 30.19 in 3.0 mi NE 6.9 mph - 0.01 in   Mist
9:15 PM 55.4 °F 55.4 °F 100% 30.20 in 8.0 mi North 6.9 mph - N/A   Unknown
9:35 PM 55.4 °F 55.4 °F 100% 30.21 in 5.0 mi North 6.9 mph - N/A   Mist
9:55 PM 55.4 °F 55.4 °F 100% 30.21 in 8.0 mi NNE 5.8 mph - N/A   Unknown
10:15 PM 55.4 °F 55.4 °F 100% 30.21 in 4.0 mi North 6.9 mph - N/A   Mist
10:35 PM 55.4 °F 55.4 °F 100% 30.22 in 2.0 mi NNW 6.9 mph - N/A   Mist
10:55 PM 55.4 °F 55.4 °F 100% 30.20 in 1.5 mi NNE 9.2 mph - 0.01 in   Mist
11:15 PM 55.4 °F 55.4 °F 100% 30.21 in 1.8 mi North 8.1 mph - 0.01 in   Mist
11:35 PM 55.4 °F 55.4 °F 100% 30.22 in 1.8 mi North 9.2 mph - 0.01 in   Light Drizzle
11:55 PM 55.4 °F 55.4 °F 100% 30.21 in 1.8 mi North 5.8 mph - 0.01 in   Mist